GFSFLT2_sfc_dewp_096.txt.gz
Dewpoint
45 44 44 43 41 39 38 38 40 41 41 41 42 41 40 40 41 43 44 46 49 52 54 58 57 58 59
43 42 42 42 41 37 31 30 37 39 38 39 39 38 37 37 38 39 42 44 47 49 51 55 58 59 58
44 42 41 39 37 36 31 28 25 30 31 37 38 36 36 36 37 37 39 42 45 47 48 50 53 58 59
43 41 39 36 36 34 31 29 28 22 26 29 31 32 34 36 36 35 37 40 42 44 46 47 49 51 55
40 38 36 33 34 33 33 31 29 27 24 25 25 26 30 33 34 36 36 37 39 41 42 44 45 47 48
39 37 35 34 30 31 34 32 30 27 24 24 25 25 28 33 34 35 36 36 37 38 38 40 41 43 44
36 36 34 32 34 34 31 29 25 27 24 21 24 23 28 31 33 33 34 36 36 37 38 38 38 38 39
29 34 34 33 33 34 32 27 25 25 25 26 23 22 26 31 33 34 34 35 34 35 35 36 38 38 37
31 30 30 29 28 27 27 26 24 23 26 25 24 23 25 27 27 32 32 32 32 33 33 34 34 33 36
30 31 30 31 28 26 29 33 28 26 26 29 26 26 29 27 28 28 27 27 30 30 31 32 32 30 31
19 22 26 27 24 24 26 33 32 31 27 30 30 27 28 27 26 27 27 25 24 24 30 29 28 30 31
20 20 22 25 28 28 28 29 29 32 30 32 31 30 29 28 25 26 27 27 27 26 27 27 26 24 26
22 25 27 31 33 31 31 31 32 32 32 31 32 30 29 28 27 25 26 28 29 29 27 26 27 26 27
24 26 28 29 29 31 30 30 30 29 31 31 31 30 29 27 26 26 26 27 28 28 28 27 26 25 25
26 25 24 26 27 30 31 30 29 28 28 28 28 29 29 28 27 26 25 26 28 28 26 26 26 27 26
28 27 27 28 29 29 30 29 28 28 27 28 28 27 26 26 29 26 26 26 27 28 27 26 27 28 24
31 30 30 29 28 28 28 28 27 28 28 28 27 26 24 22 23 28 27 27 26 25 26 26 26 27 24

GFSFLT2_sfc_dewp_099.txt.gz
Dewpoint
46 45 45 44 42 40 39 39 42 42 41 41 42 40 40 40 40 40 43 45 48 51 52 55 59 58 58
45 43 43 43 41 37 31 31 38 41 39 39 39 37 37 37 37 37 40 43 45 48 50 52 57 58 58
44 44 42 40 38 37 32 29 27 33 32 37 38 36 36 36 36 37 39 42 43 46 48 49 53 58 59
43 42 41 38 37 35 33 31 28 23 29 31 31 30 32 35 36 37 37 39 42 44 46 47 48 52 56
41 39 37 35 35 35 34 32 30 31 29 27 27 28 31 33 34 37 36 38 40 41 43 44 46 47 50
40 38 37 36 33 32 34 33 34 30 27 26 28 27 31 34 35 35 36 37 38 39 40 41 42 44 45
37 37 36 34 34 33 34 33 30 28 27 24 26 25 30 32 35 34 35 36 37 37 39 40 39 39 41
32 36 37 36 36 35 33 29 27 25 26 28 24 24 27 32 34 35 35 35 35 35 36 37 39 39 38
31 32 32 32 32 30 29 29 26 25 26 26 25 25 25 28 29 33 32 33 34 33 34 35 34 35 38
32 32 31 30 28 28 31 31 30 27 27 28 27 27 26 28 29 29 29 28 28 29 32 32 33 32 33
24 27 29 28 26 25 28 32 30 29 28 30 27 27 28 28 28 29 27 27 26 25 30 30 29 31 31
23 23 26 28 29 30 29 30 30 31 29 30 26 26 27 26 26 27 27 28 27 28 29 28 28 25 25
26 28 30 31 30 29 29 29 28 29 30 25 27 24 24 23 24 26 25 27 27 26 27 27 27 28 28
28 29 30 30 29 30 27 27 27 26 29 25 24 23 23 24 24 23 25 22 25 25 26 26 27 26 27
29 28 28 28 29 30 28 27 25 25 25 26 27 27 25 22 21 24 24 24 25 25 24 23 26 27 27
29 28 27 28 28 29 28 27 25 25 24 25 24 23 24 26 28 23 24 23 25 25 24 20 22 27 27
30 29 29 29 28 28 28 27 26 25 25 26 23 21 19 19 25 29 22 24 24 23 24 23 21 26 26

GFSFLT2_sfc_dewp_102.txt.gz
Dewpoint
43 44 45 42 41 40 39 40 42 42 42 42 41 40 39 38 38 38 41 44 46 48 51 52 55 58 59
44 42 43 43 41 37 32 33 40 41 41 40 39 38 37 37 37 37 38 42 44 46 50 51 54 58 57
43 43 42 40 39 36 32 30 29 36 34 36 38 36 35 36 38 38 38 41 42 45 47 49 52 58 58
41 42 40 39 38 36 34 32 29 24 30 31 30 28 32 34 36 38 37 40 41 43 46 47 48 53 56
39 40 37 35 36 36 35 33 31 31 29 26 26 27 30 35 35 36 38 39 40 42 43 45 46 49 51
38 37 37 36 35 34 34 32 32 29 26 25 26 26 30 33 35 35 35 36 38 40 42 41 43 46 48
37 37 35 36 34 33 33 33 29 27 25 23 25 25 29 33 35 35 35 35 36 37 39 41 40 43 45
33 35 36 36 35 35 34 27 25 24 25 22 23 23 28 30 34 33 34 34 35 35 36 36 39 40 42
32 34 35 38 34 31 26 24 23 24 25 25 23 24 24 27 30 33 32 33 32 34 35 35 35 38 39
30 30 31 31 31 29 27 23 22 21 25 24 23 23 20 27 27 28 28 27 28 31 33 33 34 33 33
28 28 28 24 23 26 29 30 21 20 27 25 17 21 22 23 25 27 27 27 26 26 31 30 30 31 31
22 24 26 24 24 26 27 27 28 25 27 28 17 19 15 18 22 24 24 26 26 27 27 28 29 27 26
24 24 24 25 25 24 25 27 24 26 27 21 17 15 15 14 18 22 21 24 24 22 24 25 25 26 24
24 26 27 27 22 21 18 20 21 26 27 19 16 16 15 17 17 18 19 18 20 21 23 24 26 26 26
25 26 27 26 26 22 21 23 22 23 26 25 26 23 20 17 15 19 20 20 20 20 21 20 23 25 26
26 27 26 25 25 23 23 22 24 25 23 21 19 18 19 23 25 18 19 20 20 22 22 15 18 24 27
27 26 25 25 27 27 25 24 25 25 25 24 19 15 11 14 23 28 17 18 20 21 21 20 16 23 27

GFSFLT2_sfc_dewp_108.txt.gz
Dewpoint
43 43 42 42 42 40 40 41 43 44 43 43 41 39 39 38 38 40 40 39 42 43 47 49 52 53 55
42 42 43 41 41 39 36 36 41 42 42 41 40 38 37 36 37 38 39 40 41 42 45 48 51 53 58
41 42 42 42 39 37 34 32 35 39 40 38 40 37 33 34 37 38 39 39 40 42 44 47 49 52 56
40 41 40 40 39 38 36 34 33 28 34 31 34 30 32 36 36 37 37 38 39 40 43 46 48 50 53
38 41 39 37 37 37 37 36 34 33 29 29 28 28 30 34 36 37 36 36 37 38 42 45 47 48 51
36 38 38 37 37 36 34 34 34 32 30 27 25 25 27 31 36 34 34 35 36 37 39 43 45 46 48
37 37 37 38 37 35 35 34 34 29 27 25 25 24 28 32 35 33 33 34 35 36 38 41 44 45 46
38 38 39 39 38 37 35 33 27 27 25 23 24 23 26 29 35 32 34 33 34 35 37 38 41 42 44
37 39 40 41 38 34 32 31 28 25 25 23 23 23 25 27 29 34 31 30 31 35 35 36 36 38 38
31 32 36 38 40 35 32 32 24 24 25 24 22 22 18 25 26 27 28 29 30 33 33 33 35 31 32
28 29 29 30 32 30 30 30 24 21 26 23 14 19 18 21 23 24 26 26 25 26 29 32 31 32 28
28 28 27 26 26 27 28 28 27 26 28 21 18 17 13 14 20 23 21 22 23 26 26 28 29 30 32
27 28 27 26 26 27 27 26 26 29 29 24 18 9 12 12 17 19 21 25 24 22 24 24 24 24 23
29 28 27 26 27 26 26 23 25 26 26 24 13 17 14 16 16 18 21 20 23 23 24 23 25 25 25
29 27 27 27 27 24 22 20 16 21 21 25 25 23 20 20 18 21 23 22 21 20 21 19 23 24 25
30 28 27 27 26 22 22 20 17 20 20 21 19 19 20 24 25 22 22 21 18 21 20 13 16 22 25
30 29 28 27 26 25 23 21 21 21 20 16 14 13 15 17 25 28 23 20 19 20 20 19 15 21 26

GFSFLT2_sfc_dewp_111.txt.gz
Dewpoint
44 44 44 43 43 42 42 42 43 45 46 44 43 40 39 38 38 40 41 40 41 43 44 47 49 51 53
43 43 43 42 40 39 38 39 41 44 44 43 42 40 38 36 37 38 39 40 40 41 43 46 49 51 53
42 43 43 42 40 39 36 34 37 42 43 41 41 40 35 34 37 37 38 38 39 39 41 45 48 50 52
42 42 41 41 40 39 37 34 34 32 38 35 36 36 32 36 36 37 37 37 37 38 40 44 46 48 50
41 41 39 37 38 39 37 36 35 34 30 31 30 28 29 33 34 36 36 36 36 37 39 43 46 47 48
40 41 41 39 37 36 36 35 34 34 31 28 26 26 27 30 35 34 33 35 36 36 38 42 44 46 47
42 41 40 39 37 34 35 35 35 31 29 28 25 25 26 31 35 33 32 33 35 36 37 39 42 44 45
43 41 41 39 39 37 36 34 28 28 27 26 24 24 26 30 35 33 33 33 33 35 36 37 38 41 43
41 41 41 42 39 36 33 33 30 27 26 24 23 23 25 27 29 34 32 29 31 34 35 36 35 37 37
34 36 39 40 41 37 35 34 30 29 26 25 23 23 20 24 27 28 28 29 30 32 33 34 35 29 30
29 29 30 33 36 32 33 35 31 31 27 23 16 21 20 23 25 25 26 26 25 26 29 31 34 32 27
28 28 29 29 30 30 29 29 29 31 29 24 20 21 20 18 21 24 21 22 23 25 25 27 29 32 34
28 28 29 29 26 26 27 28 29 30 28 23 22 17 18 16 20 21 20 22 21 19 23 25 25 26 24
32 31 28 27 27 28 27 26 26 26 27 26 21 22 16 17 18 17 17 17 19 20 23 24 26 25 25
30 29 28 28 27 26 24 24 24 24 24 26 25 24 22 21 17 18 19 20 20 22 22 20 23 25 25
30 30 28 28 27 25 25 25 23 21 22 24 24 21 21 23 24 20 18 21 23 24 23 17 17 23 24
31 30 29 29 28 25 24 24 22 21 18 20 19 17 15 16 24 26 17 21 23 24 24 22 18 22 26

GFSFLT2_sfc_dewp_117.txt.gz
Dewpoint
49 47 48 48 48 47 47 47 48 51 50 49 48 47 45 43 41 40 40 41 41 41 42 43 44 48 50
47 45 46 48 47 46 45 45 45 46 49 49 48 46 44 43 40 39 39 39 39 39 41 41 43 48 50
48 45 44 45 43 43 43 42 43 44 47 48 47 46 44 42 40 39 37 37 38 38 39 40 43 48 50
46 43 43 43 43 41 39 40 40 41 44 46 47 46 46 43 39 38 36 37 37 38 39 39 43 45 48
45 42 41 40 42 43 42 41 40 40 40 42 43 41 42 40 38 37 36 37 36 37 38 39 42 44 46
45 44 43 42 43 41 43 38 37 40 38 38 38 35 33 33 34 35 37 35 35 36 37 37 41 42 45
45 45 45 43 44 40 41 39 38 38 38 37 32 33 31 29 34 35 36 35 34 36 36 36 38 41 42
47 47 46 46 43 43 41 39 34 34 37 37 31 31 28 29 34 37 36 34 33 35 35 36 35 37 38
46 47 47 46 44 40 36 36 34 32 33 33 28 30 28 29 31 37 35 35 32 34 35 35 34 33 34
39 41 44 45 45 42 38 36 34 32 32 33 27 27 29 27 30 34 34 34 32 31 31 34 34 29 31
39 38 38 39 41 40 38 38 34 35 32 32 29 26 28 27 28 31 33 30 28 26 28 31 35 33 32
36 35 35 35 35 35 36 35 36 35 33 32 30 29 30 27 26 28 30 29 29 27 28 28 30 33 33
35 34 34 34 33 32 32 32 32 33 33 31 30 28 32 31 27 27 28 28 29 30 28 27 26 27 30
35 33 32 32 32 31 30 30 29 27 28 29 29 30 28 28 28 27 28 28 28 28 28 27 25 25 28
33 31 30 31 30 31 30 30 30 27 26 27 27 28 29 29 27 27 25 26 27 27 26 26 25 25 24
33 32 30 30 30 30 30 30 30 28 27 26 27 27 27 25 27 25 26 26 26 26 25 26 25 25 24
33 32 31 30 30 29 29 29 29 28 28 27 28 28 25 23 26 26 26 26 26 25 26 25 27 26 26